Wind_Speed
19 20 20 21 21 21 21 21 20 21 21 22 22 23 23 23 24 25 25 25 27 27 28 29 29 30 31 33 33 32 30 29 29 30 30 30 31 33 35 38 41 44 46 48 49 47 43 38 36 36 38 39 41 43 43 42 42 43 44 44 44 44 44 45 45 43 40 35 32
21 21 21 21 21 22 22 22 22 22 22 23 24 24 24 25 25 26 26 26 27 28 29 30 32 33 35 38 36 35 33 32 32 32 33 32 32 33 34 37 41 43 45 47 48 48 45 41 39 38 40 42 44 45 46 46 45 45 45 45 46 45 45 46 46 45 41 37 32
21 22 22 22 22 22 23 23 24 24 25 25 26 26 25 25 26 26 27 27 27 28 29 31 33 35 37 40 39 38 36 36 35 34 34 33 33 33 34 37 40 43 45 46 47 47 47 45 43 43 43 45 46 48 48 49 48 47 47 46 46 45 44 44 45 44 42 38 33
22 22 22 22 23 23 24 25 25 26 26 26 27 27 27 26 26 27 28 28 28 28 29 30 33 36 38 41 42 41 41 39 38 36 35 34 34 34 34 36 39 43 46 47 47 48 48 48 48 47 47 48 48 49 50 50 50 50 48 46 46 45 43 43 43 44 42 38 32
22 23 23 23 24 24 25 25 26 27 27 27 27 28 28 28 28 28 28 28 28 28 29 29 32 35 38 41 43 44 44 43 42 39 37 35 34 34 35 36 38 41 45 47 49 49 50 51 52 51 50 49 49 50 51 51 51 51 49 47 46 45 44 43 43 43 42 39 32
23 23 24 24 25 25 26 26 27 27 28 28 28 28 29 29 29 29 29 30 30 30 30 30 31 34 37 41 43 45 46 46 44 43 40 37 35 35 35 36 37 39 42 46 48 50 51 52 52 52 50 49 49 50 50 51 51 50 49 47 46 46 45 44 44 44 42 39 33
24 24 25 25 25 26 26 26 27 28 28 29 29 29 29 30 30 30 31 31 33 33 33 32 33 36 39 41 43 44 45 46 46 46 44 41 38 36 35 36 37 39 41 44 47 49 50 51 51 50 50 49 49 49 50 50 50 50 50 48 48 47 46 45 44 44 42 39 35
25 25 25 25 26 26 26 27 27 28 29 29 30 30 30 31 31 32 32 32 33 33 33 32 34 37 39 41 43 43 44 44 44 45 44 42 40 37 36 36 38 39 41 43 46 48 50 51 50 50 49 49 49 49 50 50 50 51 51 50 49 48 47 46 45 44 43 40 37
26 26 26 26 26 27 27 27 28 28 29 30 30 31 31 32 32 32 33 33 33 32 32 32 33 36 38 39 39 39 39 40 40 40 40 40 39 38 37 36 37 39 41 43 45 48 50 50 50 49 49 49 49 49 50 50 51 52 53 52 51 49 48 47 46 45 44 41 40
27 27 27 27 27 27 27 28 28 28 29 30 31 31 31 32 32 32 33 33 33 32 32 32 32 33 36 38 39 40 39 38 39 40 40 41 41 40 38 36 36 37 40 42 44 47 49 50 49 49 49 48 48 49 50 51 52 54 55 54 52 50 49 48 47 46 45 44 43
27 27 27 27 27 27 28 28 28 28 29 29 30 31 31 32 32 32 32 32 32 33 32 32 31 32 34 38 40 42 43 41 40 40 41 43 43 41 38 36 36 37 39 42 43 45 46 47 47 48 48 48 48 49 50 52 53 55 55 55 53 51 49 48 48 48 47 46 46
28 28 28 28 28 28 28 28 28 28 29 29 30 31 31 31 32 32 32 32 32 32 32 31 31 33 35 38 40 41 42 42 41 40 40 41 41 40 38 36 36 36 38 41 42 43 43 44 45 46 47 47 48 49 50 52 53 54 54 53 52 51 50 49 49 49 49 48 48
28 28 29 29 29 29 29 29 29 29 29 30 30 30 31 31 32 32 32 32 32 32 32 32 32 33 35 37 39 40 41 41 40 39 39 40 40 40 38 37 36 37 38 40 41 41 41 42 43 44 45 46 47 48 49 51 52 53 53 52 51 51 51 50 50 50 50 49 49
29 29 29 29 29 29 29 29 29 29 29 30 30 31 31 32 32 32 32 32 32 33 33 34 35 36 37 39 41 42 42 42 41 39 38 39 40 39 38 37 37 37 37 38 39 39 40 40 42 43 44 45 45 46 47 49 50 51 51 52 52 52 52 52 52 51 50 48 47
30 30 30 30 30 30 29 29 29 29 29 30 30 31 31 32 32 32 32 33 34 34 36 37 39 40 40 40 41 42 43 42 42 41 40 40 40 40 39 38 37 37 37 37 37 38 38 39 40 41 42 43 43 44 45 47 48 49 50 51 52 53 54 53 52 50 47 45 44
30 30 30 30 30 30 30 30 30 30 30 30 31 32 32 33 33 33 34 34 35 36 37 38 39 40 39 39 39 40 41 42 42 41 41 41 41 40 39 38 37 37 37 36 36 36 36 37 38 39 39 40 41 43 44 45 46 47 49 50 52 53 53 52 49 46 42 40 39
31 31 31 31 31 31 31 31 31 31 31 32 32 33 34 34 34 34 34 35 35 36 37 37 38 38 38 38 38 40 41 42 43 42 42 42 42 41 40 39 37 36 36 36 35 35 35 36 36 36 37 38 39 41 42 44 45 46 48 49 50 51 51 49 46 41 38 35 34
32 32 32 32 32 32 32 32 32 32 32 33 33 34 35 35 35 35 36 36 37 37 37 38 38 39 38 38 37 38 41 44 45 44 42 42 42 42 41 39 37 36 35 35 35 35 34 34 34 34 35 36 38 40 42 43 44 45 46 47 48 48 47 45 41 38 35 33 32
33 32 32 32 32 32 32 32 32 33 33 33 34 35 36 36 37 37 38 39 39 38 38 38 38 39 39 39 37 38 40 44 45 45 44 43 43 42 41 39 37 36 35 34 34 34 34 33 33 34 35 36 37 39 41 42 43 44 44 44 44 44 43 41 38 36 35 33 33
33 33 33 32 33 33 33 33 33 33 33 34 35 36 37 38 40 40 40 40 40 39 38 38 38 39 40 39 38 38 39 42 43 44 44 44 44 43 41 39 38 36 35 34 34 34 33 33 33 34 36 37 39 40 41 41 41 41 41 41 41 41 40 39 37 36 35 35 35
33 33 33 33 33 33 33 33 34 34 34 35 36 37 38 39 41 42 41 40 39 39 38 39 39 39 39 39 38 38 39 42 42 43 43 43 43 43 41 39 37 36 35 35 34 34 34 34 35 36 38 39 41 41 41 40 40 39 39 39 39 39 39 38 38 37 37 38 38
34 34 34 34 34 34 34 34 34 34 35 36 36 37 38 39 40 42 42 41 40 39 39 38 38 38 38 38 38 38 39 41 44 44 44 43 43 42 41 39 37 36 36 36 35 35 35 35 37 38 40 41 42 41 41 40 39 39 39 39 39 39 39 38 38 38 38 38 38
34 34 34 34 34 35 35 35 35 35 35 36 37 37 37 38 40 41 42 42 42 40 39 38 38 38 38 38 37 37 38 41 44 45 45 44 43 41 40 38 37 37 37 37 37 37 37 37 38 40 42 42 42 41 40 39 38 39 39 39 39 39 38 38 38 38 38 37 36
35 35 35 35 35 35 35 36 36 36 36 36 37 37 37 39 40 41 41 41 41 40 40 39 39 39 39 38 37 37 38 40 43 44 43 42 41 40 39 38 37 37 37 37 38 39 39 39 40 41 42 42 41 40 39 38 38 39 39 39 39 39 38 37 37 36 35 35 33
35 35 35 36 36 36 36 36 36 36 36 36 36 36 37 38 39 40 41 41 40 40 39 39 39 39 38 38 37 37 38 40 43 43 41 40 39 39 38 38 38 38 37 37 39 41 42 42 42 42 42 41 40 39 39 39 39 40 40 40 39 38 37 35 34 33 32 30 30
36 36 36 36 36 36 36 36 36 36 36 36 36 37 37 38 39 41 42 42 41 40 39 38 38 38 38 38 38 38 38 40 43 43 42 40 39 39 39 39 39 38 38 37 39 41 43 44 44 43 42 40 40 40 40 40 40 40 40 40 39 37 36 34 32 30 29 29 31
36 36 36 36 36 37 37 37 37 36 36 36 36 37 37 38 39 41 42 42 41 41 40 39 39 38 38 37 37 38 38 40 42 43 42 41 41 40 39 40 40 39 37 37 39 42 44 45 46 44 43 41 40 40 41 41 41 40 39 38 37 36 35 34 32 31 31 33 35
37 37 37 37 37 37 37 37 37 36 36 36 37 37 37 38 40 41 42 42 42 41 40 39 39 38 38 37 38 38 38 39 42 43 43 43 42 41 40 40 40 38 37 37 40 43 45 46 46 45 43 41 41 41 42 41 41 39 38 36 35 34 34 34 34 35 36 38 39
37 37 37 38 38 37 37 36 36 36 36 37 37 37 38 39 41 42 44 44 42 41 39 39 38 38 38 38 38 38 38 38 41 43 43 43 42 40 38 38 38 37 37 39 42 44 46 47 46 45 43 42 42 42 42 41 40 38 36 35 34 34 34 35 36 38 40 40 40
37 37 37 38 37 37 37 37 37 37 37 37 37 38 39 40 41 43 44 44 42 40 39 38 38 38 38 38 38 38 37 38 41 42 42 41 40 38 35 35 34 34 36 40 43 45 46 47 46 44 43 43 43 42 41 40 39 37 35 35 34 35 35 37 38 40 40 40 39
37 37 37 37 37 37 37 37 37 37 37 38 38 39 41 41 42 42 43 43 42 40 39 38 37 37 38 37 37 37 36 37 40 41 40 38 37 35 33 32 31 33 37 41 43 45 46 46 45 44 43 43 43 41 39 38 37 36 35 34 35 36 37 38 39 40 40 39 39
37 37 37 37 37 37 37 37 37 37 38 39 39 40 41 42 43 43 43 42 41 40 39 37 37 37 37 37 37 36 35 36 39 40 38 35 34 32 31 30 31 33 37 40 43 46 46 46 45 44 44 44 42 39 37 36 36 35 35 35 35 37 38 39 39 39 39 39 38
36 36 36 36 37 37 37 37 38 38 39 40 40 41 42 43 43 44 43 42 40 39 39 38 37 37 37 37 36 35 33 36 38 38 35 33 32 31 31 31 32 34 37 40 43 46 47 46 45 45 45 44 40 37 35 35 34 34 34 35 36 38 39 39 39 39 38 37 37
35 36 36 36 36 37 37 38 39 40 40 41 42 43 43 42 43 43 43 41 40 39 38 37 36 36 36 35 35 33 32 35 38 37 35 34 34 34 33 33 33 35 37 40 44 46 47 46 45 45 45 43 40 36 34 34 34 35 35 36 37 38 38 38 38 38 37 36 35
34 35 35 35 36 37 37 38 39 40 41 42 43 44 44 44 43 43 43 41 39 37 36 36 35 35 34 33 32 30 32 38 38 37 36 37 38 37 36 35 35 35 37 41 44 46 46 45 45 44 43 41 39 36 35 34 35 36 36 37 37 37 37 36 36 36 35 35 34
34 34 35 35 36 37 37 38 39 40 41 43 44 46 46 46 45 44 42 40 38 37 36 35 35 34 33 32 30 29 34 39 39 38 39 40 41 40 39 37 35 35 37 41 44 45 44 43 43 42 42 40 38 35 35 35 35 36 36 36 36 35 34 34 34 34 33 33 32
34 34 35 36 36 37 38 39 40 41 42 43 45 46 47 46 45 43 41 39 37 36 36 35 35 34 33 31 28 30 36 39 39 40 41 42 43 42 41 38 36 36 38 41 43 43 42 42 42 41 40 39 36 35 34 34 34 35 35 34 34 33 33 32 32 32 32 31 30
34 34 35 35 36 37 39 40 41 41 42 43 44 45 46 46 45 43 40 38 37 36 35 35 35 34 32 29 27 32 37 40 41 41 42 43 44 44 42 40 37 37 39 40 41 41 41 41 41 40 39 38 35 34 34 34 34 34 33 33 32 32 31 31 30 30 30 29 28
35 35 35 36 37 38 39 40 41 42 42 43 44 45 45 45 44 42 39 36 35 35 35 35 35 33 29 26 29 35 39 41 42 42 43 44 44 45 43 41 39 39 40 41 41 42 41 40 40 40 39 37 35 34 33 33 33 33 33 32 32 31 30 30 29 29 29 28 27
36 36 36 36 38 39 40 40 41 41 41 41 42 43 44 44 42 39 36 34 33 33 34 35 34 31 26 26 32 38 41 42 42 42 43 44 44 44 44 42 41 42 43 43 43 43 41 40 40 40 39 36 35 34 33 33 33 33 32 32 31 31 30 29 29 29 29 28 26
36 36 37 38 39 40 40 40 41 41 41 41 42 43 42 41 38 36 33 32 32 32 33 33 31 26 24 30 36 41 42 43 42 42 42 44 44 44 43 43 44 46 47 46 45 43 41 41 41 40 39 37 35 34 34 34 34 33 33 32 32 31 31 30 30 30 29 28 26
Wind_Direction
315 313 311 309 307 305 303 303 302 302 302 301 300 300 299 298 296 294 291 289 287 285 284 283 282 281 280 280 281 282 281 276 273 273 273 271 267 261 254 248 244 240 238 237 236 235 235 232 227 222 220 220 220 220 218 217 215 214 212 212 210 210 209 208 207 204 200 198 199
315 313 311 309 306 304 303 302 302 301 300 299 298 297 296 296 294 293 291 288 286 285 283 282 281 280 280 281 283 284 283 280 276 275 274 271 267 263 258 253 248 244 241 239 237 236 235 235 232 227 223 222 221 221 219 217 215 213 212 212 211 210 209 208 207 203 199 195 196
316 314 312 310 308 305 304 302 301 300 299 298 297 296 294 293 292 291 290 288 286 284 283 281 281 280 280 281 282 284 285 284 281 278 275 271 267 263 259 255 252 248 244 241 239 237 237 236 236 233 229 226 224 223 221 219 216 214 213 213 212 211 209 207 205 201 197 193 193
317 315 313 311 308 306 304 302 301 299 299 298 297 295 293 291 290 290 290 289 287 285 283 281 280 280 280 280 281 283 285 285 284 282 279 275 269 265 261 258 254 251 248 244 242 239 238 237 237 235 232 229 227 224 222 220 217 215 214 213 213 211 209 206 203 199 195 192 191
317 316 314 311 309 307 305 302 301 299 298 297 296 295 293 291 289 289 289 289 287 285 284 282 280 279 278 279 280 282 284 284 284 282 281 277 272 267 263 260 257 254 251 248 244 241 239 238 237 236 234 231 228 226 223 221 218 216 213 212 211 210 208 204 201 197 193 190 188
317 316 314 312 310 308 306 304 302 300 298 297 295 294 293 292 289 287 286 287 287 286 285 282 279 276 276 277 279 281 282 283 282 281 281 279 275 270 265 262 260 256 253 250 246 243 241 238 237 235 233 231 228 225 224 221 219 215 211 208 207 205 204 201 198 195 191 187 185
316 315 314 313 311 310 308 305 303 301 299 297 295 293 292 292 290 288 285 284 286 286 285 282 279 277 276 276 278 279 280 281 281 281 281 280 278 273 268 264 261 258 255 252 249 245 242 240 237 235 233 230 227 225 223 220 218 214 210 206 204 202 200 199 196 193 189 186 184
314 313 313 312 312 310 309 307 305 303 300 297 295 293 292 291 290 289 287 283 283 283 283 281 280 279 277 277 276 277 277 277 278 278 279 279 278 275 270 264 260 257 254 252 250 247 245 242 239 236 234 231 228 225 223 220 216 213 209 206 203 200 198 197 195 192 189 186 185
312 312 311 311 311 310 309 308 306 304 301 298 295 293 292 291 290 289 288 286 283 281 280 278 278 279 278 276 275 273 272 272 273 273 274 276 276 275 271 265 260 256 252 250 249 247 246 243 241 239 236 234 231 228 225 221 216 212 209 206 203 200 197 195 193 191 188 186 184
310 310 310 310 309 309 309 308 307 305 302 299 297 294 292 291 290 289 288 287 284 281 278 276 276 276 276 276 274 272 269 267 268 269 271 273 274 273 270 266 260 255 250 248 247 246 245 243 242 240 238 236 234 230 227 222 217 213 210 207 204 200 196 194 192 190 188 186 184
308 308 307 307 307 307 308 308 307 306 304 301 299 296 294 292 290 289 288 287 286 283 280 278 276 274 274 274 274 272 270 266 265 266 269 272 273 271 268 264 259 254 249 246 245 244 243 242 241 240 239 237 235 231 227 222 217 213 210 207 204 200 197 194 192 190 189 187 186
307 306 306 306 306 306 306 306 306 305 304 303 301 298 296 294 291 290 289 288 287 285 282 280 278 276 274 273 273 271 269 266 263 263 266 269 270 268 265 260 256 252 248 245 244 243 242 241 240 239 237 236 233 230 226 221 217 213 209 207 204 201 198 195 193 191 190 189 187
306 305 305 305 305 305 305 305 305 305 304 303 302 300 297 295 293 291 290 289 287 286 284 281 279 277 275 273 271 268 266 264 262 262 263 266 267 265 261 256 252 249 246 243 242 241 240 239 238 237 235 233 231 227 224 220 216 213 210 208 206 203 200 197 194 192 190 188 187
305 304 304 304 304 304 304 303 303 303 303 302 301 300 298 296 293 292 291 289 287 285 282 280 277 276 275 273 270 266 264 262 261 261 261 263 264 262 257 252 249 246 243 241 239 238 237 236 236 235 233 231 228 225 222 219 217 214 212 211 209 206 203 199 195 191 189 187 186
304 304 303 303 303 302 302 302 302 302 301 301 300 299 298 296 294 292 291 289 286 284 282 279 277 276 274 272 269 265 263 260 259 259 260 261 260 258 253 248 245 242 240 238 236 235 234 233 233 232 230 228 226 223 221 219 217 216 215 214 212 208 204 199 194 190 187 186 186
303 303 303 302 302 301 301 300 300 300 300 299 299 298 297 296 294 291 289 287 285 284 282 281 280 278 276 273 269 264 261 259 257 257 257 257 257 254 250 245 241 238 236 234 232 230 230 230 229 229 227 225 223 221 218 217 216 215 214 212 210 207 202 196 191 188 187 188 189
302 302 302 301 301 300 299 299 298 298 298 298 297 297 296 294 293 291 288 286 284 284 283 282 281 279 277 275 271 266 261 258 255 254 253 254 253 251 247 241 237 234 232 230 228 226 225 224 224 224 222 221 219 217 215 213 212 210 208 206 204 200 196 193 190 189 190 192 193
301 301 300 300 299 299 298 297 297 297 297 296 296 295 294 293 291 289 288 286 284 283 282 281 280 278 277 276 273 267 261 258 255 252 250 249 249 248 244 239 234 230 228 226 224 222 220 219 218 217 215 214 214 212 210 208 206 204 201 199 197 194 193 191 191 193 195 196 196
300 300 299 299 298 298 297 297 296 296 296 295 295 294 293 292 291 290 288 286 284 282 281 280 279 278 276 275 273 268 261 257 254 251 249 247 246 244 241 236 231 226 223 221 219 218 216 214 211 209 207 206 206 205 203 201 199 197 196 194 193 192 193 194 196 198 199 199 197
299 299 298 298 297 297 296 296 295 295 295 294 294 293 293 292 291 290 289 288 285 283 281 280 279 278 276 275 273 268 261 255 251 249 247 245 242 240 236 232 226 222 218 216 214 211 209 207 204 202 200 200 198 197 195 193 192 191 191 192 192 193 195 196 197 198 196 194 191
298 298 298 297 297 296 295 295 294 294 294 294 294 293 293 293 292 291 290 289 287 284 282 280 279 278 277 275 273 269 262 254 249 246 244 241 237 234 230 226 221 217 213 210 208 205 203 200 198 196 195 195 193 190 188 187 187 187 188 189 191 192 193 193 192 190 187 184 181
298 297 297 297 296 295 295 294 294 293 293 293 293 293 293 293 292 292 291 290 289 286 283 281 279 278 277 276 273 269 262 254 248 245 241 238 232 228 224 219 215 211 208 204 202 199 197 195 194 193 192 190 188 187 185 184 184 184 185 185 186 186 185 184 182 179 176 173 170
297 297 297 296 296 295 294 294 293 293 293 293 293 293 293 292 292 292 291 291 291 288 285 282 279 278 277 276 273 270 263 254 247 242 238 234 227 222 217 213 210 206 203 200 198 195 193 191 191 190 189 187 185 184 184 183 183 182 182 181 179 177 175 173 171 168 166 163 161
297 297 296 296 295 295 294 294 293 293 293 293 293 293 293 292 292 292 292 291 291 289 287 284 281 279 277 276 274 270 263 253 245 238 233 227 221 215 211 208 205 202 199 196 195 193 191 189 188 187 187 185 184 184 183 183 182 180 177 174 171 168 166 164 162 160 159 157 156
297 296 296 295 295 295 294 294 293 293 293 293 293 293 293 292 292 292 292 292 291 289 287 284 282 280 279 277 275 271 264 253 243 235 226 219 214 210 207 203 200 197 196 194 194 193 191 189 188 186 185 184 183 183 182 181 178 175 171 168 164 162 160 159 158 158 157 157 157
296 296 296 295 295 295 294 293 293 292 292 292 293 293 293 293 292 292 292 292 291 289 287 285 283 282 280 278 277 273 265 253 242 232 223 216 210 207 203 200 196 194 193 193 194 193 192 191 189 187 184 183 181 180 178 175 173 169 166 163 161 159 159 159 159 158 159 161 164
296 296 296 296 295 295 294 293 292 292 292 292 293 293 293 293 293 292 292 292 291 290 288 286 285 284 283 280 279 276 268 254 240 229 221 214 207 203 199 197 195 193 192 193 194 194 193 193 191 188 185 181 179 177 173 170 167 164 162 161 160 160 160 160 159 160 164 168 171
296 296 296 296 295 294 293 293 292 292 292 292 292 293 293 293 293 292 292 292 291 290 289 288 287 287 285 283 282 279 270 254 237 225 217 211 205 200 197 195 194 192 191 193 194 195 194 194 191 188 184 180 176 173 170 166 163 162 161 161 162 162 162 162 163 166 170 172 173
296 296 296 296 295 294 293 293 292 292 292 292 292 293 293 293 293 293 293 293 292 291 289 288 287 287 286 284 283 281 271 252 233 221 213 207 202 198 196 194 193 192 192 194 194 195 194 193 189 185 181 177 173 169 166 164 162 162 162 163 163 164 164 165 169 172 173 174 173
296 296 296 296 295 294 293 292 292 292 292 292 293 293 293 293 294 294 294 294 292 291 289 288 287 286 285 283 283 280 269 249 230 218 210 205 200 198 196 194 193 193 194 194 194 194 193 190 185 180 176 172 169 166 164 163 163 163 163 164 165 166 168 171 173 174 174 173 172
296 296 296 295 294 293 293 292 292 292 292 293 293 292 293 294 294 294 294 294 292 291 290 289 287 285 283 282 282 278 265 244 226 215 208 204 200 198 195 193 193 194 195 194 193 192 189 185 179 175 172 170 167 164 163 164 164 164 165 166 167 169 172 174 175 175 174 172 170
296 295 295 295 294 293 293 293 292 292 293 293 293 293 293 293 293 294 294 294 293 292 291 289 287 284 283 282 282 276 261 239 221 211 206 202 199 195 193 192 194 196 195 194 191 188 184 179 175 172 171 169 166 164 163 164 165 165 166 167 169 172 174 175 175 174 172 170 168
295 295 295 295 294 294 293 293 293 293 293 294 293 293 293 293 294 295 295 295 293 292 291 290 288 285 283 282 282 275 257 232 216 206 201 197 194 192 191 193 195 196 195 192 188 184 179 176 173 173 172 171 167 164 164 164 165 166 167 168 171 174 175 175 174 172 171 169 168
296 296 296 295 294 294 294 293 293 294 294 294 294 294 294 294 294 295 295 295 294 293 291 290 288 285 283 281 281 271 249 223 208 201 197 194 192 191 191 193 195 195 192 188 184 180 176 175 175 175 175 173 169 166 165 165 166 166 167 169 171 174 175 174 173 171 170 169 169
297 297 296 296 295 295 294 294 294 295 295 295 295 295 295 295 295 296 297 297 296 294 291 289 288 286 283 281 279 263 237 215 204 196 193 192 192 191 191 193 193 192 189 185 181 177 176 176 177 178 178 176 172 168 166 166 167 167 168 169 171 172 173 173 172 171 170 170 170
298 298 297 297 296 296 295 295 295 295 295 295 295 296 297 298 298 299 299 298 297 295 292 289 288 286 285 282 274 251 225 209 199 194 193 193 192 192 191 192 191 189 186 183 179 177 177 178 179 180 180 178 173 169 167 167 167 167 168 168 169 170 170 170 170 170 170 171 171
299 299 298 298 297 297 296 296 295 295 295 295 296 297 298 299 299 300 299 299 298 295 292 290 288 287 285 279 260 235 216 204 197 193 193 193 192 192 191 191 188 186 183 180 178 177 178 180 182 183 182 176 171 167 166 166 166 165 165 165 166 166 167 168 168 170 171 172 172
300 300 299 299 298 297 296 296 296 296 296 296 296 297 298 299 299 300 300 299 297 294 291 291 289 287 283 271 243 221 209 202 198 196 194 193 192 192 191 189 186 183 180 178 177 178 180 183 185 185 180 173 168 166 165 164 163 162 162 162 162 163 164 165 167 169 171 173 172
301 300 300 299 298 297 297 297 296 296 296 296 296 297 298 298 299 300 300 299 297 294 291 290 289 286 278 256 228 212 205 201 200 198 196 193 192 192 192 189 184 180 177 176 177 179 182 185 186 183 177 170 167 165 164 162 161 160 159 159 159 160 162 163 165 168 171 173 172
301 301 300 299 298 298 298 297 296 296 295 295 295 296 297 298 299 299 299 299 298 296 293 291 288 282 265 236 215 206 203 202 201 199 195 192 192 193 192 189 183 177 175 176 178 181 184 187 185 180 174 169 167 165 164 162 160 158 158 158 158 158 160 162 165 168 171 171 170
302 301 301 300 299 298 298 297 296 296 295 295 295 296 298 299 300 300 300 300 298 296 294 291 286 271 245 219 209 205 203 202 200 197 194 192 192 192 191 187 180 176 174 176 178 182 185 185 182 177 172 169 168 166 164 163 160 159 159 159 159 160 160 163 166 169 170 169 168
Height
1457 1457 1456 1455 1454 1453 1452 1451 1450 1449 1449 1448 1447 1446 1445 1444 1443 1442 1440 1439 1438 1437 1436 1436 1435 1434 1432 1431 1430 1430 1430 1429 1429 1428 1427 1427 1426 1426 1426 1426 1426 1426 1426 1426 1426 1427 1427 1427 1427 1426 1427 1427 1428 1429 1430 1432 1433 1434 1435 1436 1436 1437 1438 1439 1439 1440 1442 1444 1446
1456 1455 1454 1453 1452 1451 1450 1449 1448 1447 1447 1446 1445 1444 1443 1442 1441 1440 1439 1438 1437 1435 1434 1433 1432 1431 1429 1428 1427 1427 1427 1426 1426 1425 1424 1424 1424 1424 1424 1424 1423 1423 1423 1423 1424 1424 1424 1425 1424 1424 1424 1424 1425 1426 1427 1428 1430 1431 1432 1433 1433 1434 1435 1435 1436 1437 1439 1441 1444
1454 1453 1452 1451 1450 1450 1449 1448 1447 1445 1445 1444 1443 1442 1441 1439 1439 1438 1436 1435 1434 1434 1433 1431 1429 1428 1427 1425 1424 1424 1424 1423 1423 1422 1422 1422 1421 1421 1421 1421 1421 1421 1421 1420 1421 1421 1422 1423 1423 1423 1422 1422 1422 1423 1424 1425 1426 1428 1429 1430 1431 1433 1433 1434 1434 1436 1437 1439 1442
1452 1451 1450 1449 1449 1448 1447 1446 1444 1444 1443 1441 1440 1439 1438 1437 1436 1435 1434 1433 1432 1431 1430 1429 1428 1426 1424 1423 1422 1421 1421 1420 1420 1419 1419 1419 1419 1418 1418 1418 1418 1418 1418 1418 1418 1419 1419 1420 1420 1420 1419 1419 1420 1420 1421 1422 1423 1424 1426 1428 1430 1431 1432 1433 1434 1434 1436 1437 1440
1450 1449 1449 1448 1447 1446 1445 1444 1443 1441 1440 1439 1438 1437 1436 1435 1434 1432 1431 1430 1429 1429 1428 1427 1425 1423 1421 1420 1419 1419 1418 1417 1417 1416 1416 1416 1416 1415 1415 1415 1415 1415 1415 1415 1415 1416 1416 1416 1416 1416 1416 1417 1417 1418 1418 1419 1420 1421 1423 1425 1427 1429 1430 1431 1432 1433 1434 1435 1438
1449 1448 1447 1446 1445 1444 1443 1442 1441 1439 1438 1437 1436 1434 1434 1433 1431 1430 1429 1428 1427 1426 1425 1424 1423 1420 1419 1418 1417 1416 1415 1414 1414 1413 1413 1413 1413 1413 1413 1412 1412 1413 1413 1412 1412 1412 1412 1413 1413 1414 1414 1414 1415 1415 1415 1416 1417 1419 1420 1422 1424 1425 1427 1428 1429 1430 1431 1432 1435
1447 1446 1445 1444 1443 1442 1441 1439 1439 1437 1436 1435 1434 1432 1431 1430 1429 1428 1426 1425 1424 1423 1422 1421 1420 1418 1416 1415 1414 1414 1413 1412 1410 1410 1409 1409 1410 1410 1410 1409 1409 1409 1409 1409 1409 1409 1409 1409 1410 1410 1411 1411 1411 1412 1413 1414 1415 1416 1418 1419 1420 1422 1423 1425 1426 1427 1428 1429 1431
1445 1444 1443 1442 1441 1439 1439 1437 1436 1435 1434 1433 1431 1430 1429 1428 1427 1425 1424 1423 1421 1420 1419 1418 1417 1415 1414 1413 1412 1411 1411 1409 1408 1407 1406 1406 1406 1406 1407 1407 1407 1406 1406 1406 1406 1406 1406 1406 1407 1407 1407 1407 1408 1409 1410 1411 1413 1414 1415 1417 1417 1419 1420 1421 1422 1423 1424 1426 1428
1443 1442 1441 1440 1439 1437 1436 1435 1434 1433 1432 1430 1429 1428 1427 1425 1424 1423 1422 1420 1419 1417 1416 1416 1414 1413 1411 1411 1410 1409 1408 1407 1406 1405 1404 1403 1403 1403 1403 1404 1404 1404 1403 1403 1402 1402 1402 1403 1404 1404 1404 1405 1406 1407 1408 1409 1410 1411 1412 1414 1414 1415 1417 1418 1419 1419 1421 1422 1424
1441 1440 1439 1438 1436 1435 1434 1432 1431 1430 1429 1428 1426 1425 1424 1423 1422 1420 1419 1418 1417 1415 1414 1413 1412 1411 1409 1408 1407 1406 1406 1405 1404 1402 1402 1401 1400 1400 1400 1400 1400 1400 1400 1399 1399 1399 1399 1400 1401 1401 1402 1403 1404 1404 1405 1406 1407 1408 1409 1410 1411 1412 1413 1414 1415 1416 1417 1419 1420
1439 1438 1437 1435 1434 1433 1431 1430 1429 1427 1426 1425 1424 1423 1422 1420 1419 1418 1417 1416 1414 1413 1412 1410 1410 1409 1407 1405 1404 1403 1403 1402 1401 1400 1399 1398 1398 1397 1397 1397 1397 1397 1397 1396 1396 1396 1396 1397 1398 1399 1399 1400 1401 1402 1402 1403 1404 1405 1406 1407 1408 1409 1410 1411 1412 1413 1414 1415 1417
1438 1436 1435 1433 1432 1430 1429 1428 1426 1425 1424 1423 1421 1420 1419 1418 1417 1416 1414 1414 1412 1410 1409 1408 1407 1406 1405 1403 1402 1401 1400 1399 1398 1397 1396 1395 1395 1395 1394 1394 1394 1394 1394 1394 1393 1393 1394 1394 1395 1395 1396 1397 1398 1399 1399 1400 1401 1402 1403 1404 1405 1407 1408 1409 1410 1411 1413 1414 1415
1435 1434 1433 1431 1430 1428 1427 1425 1424 1423 1421 1420 1419 1418 1417 1415 1414 1414 1412 1411 1409 1408 1407 1406 1405 1404 1403 1401 1400 1399 1398 1397 1396 1395 1394 1393 1392 1392 1392 1392 1391 1391 1391 1391 1391 1391 1391 1391 1392 1392 1393 1394 1395 1396 1396 1397 1398 1399 1401 1402 1404 1405 1406 1407 1408 1409 1411 1412 1414
1433 1432 1430 1429 1428 1426 1425 1423 1422 1420 1419 1418 1416 1415 1414 1413 1412 1411 1410 1408 1406 1405 1404 1403 1401 1401 1400 1399 1397 1396 1395 1394 1394 1392 1391 1390 1390 1389 1389 1389 1388 1388 1388 1388 1389 1389 1389 1389 1389 1390 1390 1391 1392 1393 1394 1395 1396 1397 1398 1400 1401 1403 1404 1405 1406 1408 1409 1411 1412
1431 1430 1428 1427 1426 1424 1423 1421 1420 1418 1417 1415 1414 1413 1412 1410 1409 1408 1407 1405 1404 1402 1401 1399 1398 1397 1397 1396 1394 1393 1392 1392 1391 1390 1389 1388 1387 1387 1386 1386 1385 1385 1385 1385 1386 1387 1387 1387 1387 1388 1389 1389 1390 1391 1392 1393 1394 1395 1396 1397 1399 1400 1402 1403 1404 1406 1408 1410 1411
1429 1428 1426 1425 1424 1422 1421 1419 1418 1416 1414 1413 1411 1410 1409 1407 1406 1405 1404 1402 1401 1399 1397 1396 1394 1394 1393 1393 1391 1389 1389 1389 1389 1387 1386 1385 1384 1384 1384 1384 1383 1383 1383 1383 1384 1384 1385 1385 1385 1386 1387 1388 1389 1389 1390 1391 1392 1393 1394 1395 1396 1397 1399 1401 1403 1405 1408 1410 1411
1427 1425 1424 1423 1421 1420 1418 1417 1415 1414 1412 1410 1409 1407 1406 1404 1403 1401 1400 1399 1398 1396 1394 1393 1392 1391 1390 1389 1388 1387 1386 1385 1384 1384 1383 1382 1382 1381 1381 1381 1380 1380 1380 1381 1381 1382 1383 1383 1384 1385 1386 1386 1387 1388 1389 1389 1390 1391 1392 1393 1394 1396 1398 1400 1402 1405 1407 1409 1411
1425 1423 1422 1420 1419 1417 1416 1414 1413 1411 1409 1408 1406 1404 1403 1401 1400 1398 1397 1395 1394 1393 1392 1390 1389 1388 1387 1386 1385 1384 1382 1381 1380 1380 1380 1379 1379 1378 1378 1378 1378 1378 1378 1378 1379 1380 1381 1382 1383 1384 1384 1385 1386 1387 1388 1388 1389 1390 1391 1393 1394 1395 1397 1399 1402 1404 1406 1408 1410
1423 1421 1419 1418 1416 1415 1413 1412 1410 1409 1407 1405 1403 1401 1399 1398 1396 1395 1393 1392 1391 1390 1389 1387 1386 1384 1383 1383 1382 1381 1379 1378 1377 1376 1376 1376 1376 1375 1375 1375 1375 1375 1376 1376 1377 1378 1379 1380 1381 1382 1383 1384 1385 1386 1387 1388 1389 1390 1391 1393 1394 1396 1398 1400 1402 1403 1405 1407 1408
1420 1419 1417 1415 1414 1412 1411 1409 1407 1406 1404 1402 1400 1398 1396 1394 1393 1391 1390 1388 1387 1386 1385 1384 1383 1381 1380 1379 1379 1378 1377 1375 1374 1373 1373 1373 1372 1372 1372 1372 1372 1373 1373 1374 1375 1376 1377 1379 1379 1380 1381 1382 1383 1384 1386 1387 1388 1389 1391 1393 1394 1396 1398 1399 1401 1402 1403 1404 1406
1418 1416 1415 1413 1412 1410 1408 1406 1404 1403 1401 1399 1397 1395 1393 1391 1389 1388 1386 1385 1384 1383 1382 1380 1379 1378 1377 1376 1375 1374 1374 1373 1371 1370 1370 1369 1369 1369 1369 1369 1369 1369 1370 1371 1373 1374 1375 1377 1378 1379 1379 1380 1382 1383 1384 1386 1388 1389 1390 1392 1394 1395 1397 1398 1399 1400 1402 1403 1404
1415 1414 1412 1411 1409 1407 1405 1403 1402 1400 1398 1396 1394 1392 1390 1388 1386 1384 1383 1381 1380 1379 1378 1377 1376 1375 1374 1373 1372 1371 1371 1370 1369 1367 1367 1367 1366 1366 1366 1367 1366 1367 1368 1369 1370 1372 1374 1375 1376 1377 1378 1379 1380 1382 1383 1385 1386 1388 1389 1391 1393 1394 1396 1398 1399 1400 1401 1403 1404
1413 1411 1409 1408 1406 1404 1402 1400 1399 1397 1395 1393 1391 1389 1387 1385 1383 1381 1379 1378 1377 1375 1374 1373 1372 1371 1370 1369 1369 1369 1368 1368 1366 1364 1364 1364 1364 1364 1364 1364 1364 1364 1364 1366 1368 1370 1372 1373 1374 1375 1377 1378 1379 1381 1382 1384 1385 1387 1389 1390 1392 1394 1396 1398 1399 1401 1402 1403 1404
1410 1409 1407 1405 1403 1401 1399 1398 1396 1394 1392 1390 1388 1386 1384 1382 1380 1378 1376 1375 1373 1372 1371 1370 1369 1368 1367 1366 1366 1365 1365 1364 1363 1362 1361 1361 1361 1361 1362 1362 1361 1361 1362 1364 1366 1367 1369 1371 1373 1374 1375 1377 1378 1379 1381 1383 1384 1386 1388 1389 1391 1394 1396 1398 1399 1401 1402 1404 1405
1407 1405 1404 1402 1400 1398 1396 1395 1393 1391 1389 1387 1385 1383 1381 1379 1377 1375 1373 1371 1370 1369 1368 1367 1365 1364 1364 1363 1362 1362 1362 1361 1360 1360 1359 1359 1359 1359 1359 1359 1359 1359 1361 1363 1364 1365 1367 1368 1370 1372 1374 1375 1377 1378 1380 1382 1384 1385 1387 1389 1391 1393 1395 1398 1400 1401 1403 1404 1406
1404 1402 1400 1399 1397 1395 1394 1392 1390 1388 1386 1384 1382 1380 1378 1376 1374 1372 1370 1368 1366 1365 1364 1364 1362 1361 1360 1359 1359 1358 1358 1358 1358 1357 1357 1357 1356 1356 1357 1357 1357 1358 1359 1361 1362 1364 1365 1366 1368 1370 1372 1374 1375 1377 1379 1381 1383 1385 1387 1389 1391 1393 1395 1397 1399 1402 1404 1404 1405
1401 1399 1397 1396 1394 1392 1390 1389 1387 1385 1383 1381 1379 1377 1375 1373 1371 1369 1367 1365 1363 1362 1361 1360 1359 1358 1357 1356 1356 1355 1354 1354 1354 1354 1354 1354 1353 1353 1354 1354 1355 1356 1357 1359 1360 1362 1363 1365 1367 1369 1370 1372 1373 1375 1377 1379 1382 1384 1386 1389 1391 1393 1394 1396 1399 1400 1402 1403 1403
1398 1396 1394 1393 1391 1389 1387 1385 1384 1381 1379 1378 1376 1374 1372 1370 1368 1366 1364 1361 1360 1358 1357 1356 1356 1355 1354 1353 1352 1351 1351 1351 1351 1352 1352 1351 1351 1351 1351 1352 1353 1354 1355 1357 1359 1360 1361 1363 1365 1367 1369 1370 1372 1374 1376 1378 1381 1384 1386 1389 1391 1393 1394 1396 1397 1399 1399 1400 1401
1395 1394 1392 1389 1388 1385 1384 1382 1380 1378 1376 1374 1373 1371 1369 1367 1364 1362 1360 1358 1356 1355 1354 1353 1353 1352 1351 1350 1349 1348 1347 1347 1348 1348 1349 1348 1349 1349 1350 1351 1352 1353 1354 1354 1356 1358 1360 1362 1364 1365 1367 1369 1371 1373 1375 1378 1380 1383 1386 1388 1390 1392 1394 1395 1396 1397 1397 1399 1400
1392 1390 1389 1386 1384 1382 1380 1379 1377 1375 1373 1371 1369 1367 1365 1363 1361 1359 1357 1355 1353 1351 1350 1350 1350 1349 1348 1347 1346 1345 1344 1344 1344 1345 1346 1346 1348 1349 1350 1351 1352 1352 1352 1352 1354 1356 1358 1360 1363 1364 1366 1368 1370 1373 1375 1378 1380 1383 1385 1388 1390 1392 1393 1394 1395 1396 1397 1399 1400
1389 1387 1385 1384 1381 1379 1377 1375 1374 1372 1370 1368 1366 1364 1362 1360 1358 1356 1354 1352 1350 1348 1347 1347 1347 1346 1344 1343 1342 1342 1341 1341 1342 1342 1344 1345 1347 1348 1349 1350 1351 1350 1350 1351 1353 1355 1357 1359 1361 1363 1365 1367 1370 1373 1375 1378 1380 1383 1385 1387 1389 1391 1392 1393 1394 1395 1397 1399 1400
1386 1384 1383 1380 1378 1376 1374 1372 1370 1369 1367 1365 1363 1361 1359 1357 1354 1353 1351 1349 1347 1345 1344 1344 1343 1342 1341 1340 1339 1339 1339 1339 1339 1340 1342 1344 1345 1347 1348 1349 1348 1348 1349 1350 1352 1354 1356 1359 1361 1363 1365 1368 1370 1373 1376 1378 1380 1383 1385 1387 1389 1390 1391 1393 1394 1396 1397 1399 1401
1384 1382 1379 1378 1375 1373 1371 1369 1367 1365 1364 1362 1359 1357 1355 1353 1351 1349 1348 1346 1344 1343 1341 1340 1340 1339 1338 1336 1336 1336 1336 1336 1336 1337 1339 1342 1344 1345 1346 1345 1345 1346 1348 1350 1351 1353 1355 1358 1360 1362 1365 1368 1371 1374 1377 1379 1381 1383 1385 1387 1388 1390 1391 1392 1394 1396 1398 1399 1401
1381 1379 1377 1374 1372 1370 1368 1366 1364 1362 1360 1358 1356 1354 1352 1350 1348 1346 1344 1343 1342 1340 1339 1338 1337 1336 1334 1333 1333 1333 1334 1334 1334 1335 1337 1339 1341 1342 1343 1342 1343 1344 1347 1349 1351 1353 1354 1357 1360 1363 1366 1370 1373 1375 1378 1379 1381 1382 1384 1386 1388 1389 1391 1393 1394 1396 1398 1399 1401
1378 1376 1374 1372 1369 1367 1365 1363 1361 1359 1357 1355 1352 1350 1348 1347 1345 1343 1341 1340 1339 1337 1336 1334 1334 1333 1331 1330 1330 1331 1331 1331 1331 1333 1335 1337 1338 1339 1339 1339 1341 1343 1346 1349 1351 1352 1354 1357 1360 1364 1368 1371 1374 1376 1378 1379 1380 1382 1384 1385 1388 1389 1391 1393 1395 1396 1398 1399 1400
1376 1374 1371 1369 1367 1364 1362 1360 1358 1356 1354 1351 1349 1347 1344 1343 1341 1339 1338 1337 1336 1334 1333 1331 1330 1329 1329 1328 1328 1328 1328 1328 1329 1331 1333 1334 1335 1336 1337 1338 1340 1343 1345 1348 1350 1352 1354 1358 1362 1366 1369 1372 1375 1377 1378 1379 1381 1382 1384 1386 1388 1389 1391 1393 1395 1396 1398 1399 1400
1373 1371 1369 1366 1364 1362 1359 1357 1355 1353 1350 1348 1346 1344 1341 1339 1338 1336 1335 1334 1333 1332 1330 1329 1328 1326 1326 1326 1326 1326 1325 1325 1327 1329 1330 1332 1333 1334 1335 1337 1339 1342 1345 1347 1349 1352 1355 1359 1363 1366 1370 1373 1375 1377 1378 1379 1381 1383 1384 1386 1388 1390 1392 1393 1395 1396 1398 1399 1400
1370 1368 1366 1364 1361 1359 1357 1354 1352 1350 1347 1345 1343 1340 1338 1337 1335 1333 1332 1331 1330 1329 1327 1326 1324 1324 1323 1324 1324 1323 1323 1324 1325 1327 1329 1330 1331 1332 1334 1336 1339 1341 1344 1346 1349 1353 1356 1360 1364 1367 1370 1372 1374 1376 1378 1379 1381 1382 1384 1386 1388 1390 1391 1393 1394 1396 1397 1399 1400
1367 1365 1364 1361 1359 1356 1354 1351 1349 1347 1344 1342 1339 1337 1335 1334 1332 1330 1329 1328 1328 1327 1325 1323 1322 1321 1321 1322 1322 1321 1321 1323 1324 1325 1327 1328 1329 1331 1333 1335 1338 1340 1343 1346 1349 1353 1357 1360 1364 1367 1369 1372 1374 1376 1377 1379 1380 1382 1384 1385 1387 1389 1391 1393 1394 1396 1397 1398 1400
1364 1363 1360 1358 1356 1353 1351 1349 1346 1344 1342 1340 1337 1335 1333 1331 1329 1328 1327 1326 1325 1324 1322 1321 1319 1319 1319 1320 1319 1319 1319 1321 1323 1324 1326 1327 1329 1331 1333 1335 1337 1339 1342 1346 1349 1353 1357 1360 1364 1367 1369 1371 1374 1375 1377 1379 1380 1381 1383 1384 1386 1388 1390 1392 1393 1395 1396 1398 1400
1362 1359 1358 1355 1353 1351 1348 1346 1343 1341 1339 1337 1335 1332 1330 1328 1327 1326 1324 1323 1322 1321 1320 1319 1318 1317 1317 1317 1317 1317 1318 1319 1321 1323 1325 1327 1329 1331 1333 1334 1336 1339 1342 1346 1349 1353 1357 1360 1364 1366 1369 1371 1373 1375 1376 1378 1379 1380 1382 1384 1385 1387 1389 1390 1392 1394 1395 1397 1399